Temperature
19 18 18 18 18 18 18 18 18 18 17 17 17 17 17 17 17 17 17 17 17 17 17 17 17 17 17 17 17 17 17 17 17 17 17 17 17 17 17 17 17 16 16
18 18 18 18 18 18 17 17 17 17 17 17 17 17 17 17 17 17 17 17 17 17 17 17 17 17 17 17 17 17 17 17 17 16 16 16 16 17 16 16 16 16 16
18 18 18 18 18 17 17 17 17 17 17 17 17 17 17 17 17 17 17 17 16 16 16 16 16 16 16 16 16 16 16 16 16 16 16 16 16 16 16 16 16 16 15
18 17 17 17 17 17 17 17 17 17 16 16 16 17 17 16 16 16 16 16 16 16 16 16 16 16 16 16 16 16 16 16 16 16 16 15 15 15 15 15 15 15 15
17 17 17 17 17 17 17 17 16 16 16 16 16 16 16 16 16 16 16 16 16 16 15 15 15 15 15 15 15 15 15 15 15 15 15 15 15 15 15 15 14 14 14
17 17 17 16 16 16 16 16 16 16 16 16 16 16 16 16 16 16 16 15 15 15 15 15 15 15 15 15 15 15 15 14 14 14 14 14 14 14 14 14 13 13 13
17 17 16 16 16 16 16 16 16 16 16 16 15 15 15 15 15 15 15 15 15 15 15 15 14 14 14 14 14 14 14 14 13 13 13 13 13 13 13 13 13 12 12
16 16 16 16 16 16 16 15 15 15 15 15 15 15 15 14 14 14 15 14 14 14 14 14 14 14 14 14 14 13 13 13 13 13 13 12 12 12 12 12 12 12 11
16 16 16 16 16 15 15 15 15 15 15 15 14 14 14 14 14 14 14 14 14 13 13 13 13 13 13 13 13 13 13 12 12 12 12 12 12 11 11 11 11 11 11
16 16 16 15 15 15 15 15 14 14 14 14 14 14 14 14 13 13 14 14 13 13 13 13 12 12 12 12 12 12 12 11 11 11 11 11 11 11 11 11 10 10 10
15 15 15 15 15 15 14 14 14 14 14 13 13 13 13 13 13 13 13 13 13 13 12 12 12 11 11 11 11 11 11 11 11 10 10 10 10 10 10 10 10 10 9
15 15 14 14 14 14 14 14 13 13 13 13 13 13 13 12 12 12 12 12 12 12 11 11 11 11 11 11 11 10 10 10 10 10 10 10 9 9 9 9 9 9 9
14 14 14 14 14 13 13 13 13 13 13 12 12 12 12 12 12 12 11 11 11 11 11 10 10 10 10 10 10 10 10 10 10 9 9 9 9 9 8 8 8 8 8
14 14 14 13 13 13 13 13 13 12 12 12 12 12 12 11 11 11 11 11 10 10 10 10 9 9 9 9 9 9 9 9 9 9 8 8 8 8 8 8 8 8 8
13 13 13 13 13 13 12 12 12 12 12 12 12 11 11 11 10 10 10 10 10 10 9 9 9 9 9 8 8 8 8 8 8 8 8 8 8 7 7 7 7 7 7
13 13 12 12 12 12 12 12 11 11 11 11 11 11 10 10 10 10 10 9 9 9 9 9 8 8 8 8 8 8 7 7 7 7 7 7 7 7 7 7 7 7 7
13 12 12 12 12 12 12 11 11 10 10 10 10 10 10 9 9 9 9 9 9 9 9 8 8 7 7 7 7 7 7 7 7 7 7 6 6 6 6 6 6 6 6
12 12 12 12 12 11 11 11 11 10 10 10 9 9 9 9 9 9 9 9 8 8 8 8 7 7 7 7 7 7 6 6 6 6 6 6 6 6 6 6 6 5 5
12 11 11 11 11 11 11 10 10 10 10 10 9 9 9 8 8 8 8 8 8 7 7 7 7 7 6 6 6 6 6 6 6 6 6 5 5 5 5 5 5 5 5
11 11 11 11 11 10 10 10 10 10 9 9 9 8 8 8 8 8 7 7 7 7 7 7 6 6 6 6 6 6 6 6 5 5 5 5 5 5 5 5 5 5 5
11 11 11 11 10 10 10 10 10 9 9 9 8 8 8 8 8 7 7 7 7 6 6 6 6 6 6 5 5 5 5 5 5 5 5 5 5 4 4 4 4 4 4
11 10 10 10 10 10 9 9 9 9 8 8 8 8 7 7 7 7 7 6 6 6 6 5 5 5 5 5 5 5 5 5 5 4 4 4 4 4 4 4 4 4 4
10 10 10 10 10 9 9 9 8 8 8 8 7 7 7 7 6 6 6 6 6 5 5 5 5 5 5 4 4 4 4 4 4 4 4 4 4 4 4 4 4 4 4
10 10 9 9 9 9 8 8 8 8 7 7 7 7 7 6 6 6 6 5 5 5 5 4 4 4 4 4 4 4 4 4 4 4 4 4 4 3 3 3 3 3 3
9 9 9 9 9 8 8 8 8 7 7 7 7 6 6 6 6 5 5 5 5 4 4 4 4 4 4 4 4 4 4 4 4 4 3 3 3 3 3 3 3 3 3
9 9 9 8 8 8 8 7 7 7 7 6 6 6 6 6 5 5 5 5 5 4 4 4 4 4 4 4 4 4 4 4 3 3 3 3 3 3 3 3 3 3 3
Wind_Speed
6 6 6 5 5 4 4 4 5 5 5 5 6 6 6 6 5 5 5 5 5 5 5 5 6 5 4 4 3 3 3 4 5 3 2 2 1 2 2 4 6 7 8
6 5 5 4 4 4 3 3 4 4 4 5 5 5 5 5 5 5 6 5 4 4 4 3 4 4 4 4 3 3 3 3 4 4 2 1 1 1 1 1 1 3 4
5 5 5 5 5 4 4 3 3 4 3 3 4 4 4 4 4 4 4 3 3 3 3 3 4 3 3 2 2 2 3 2 2 3 3 1 1 0 0 1 1 1 1
4 5 5 5 5 4 3 3 3 3 3 3 3 3 3 3 3 3 3 2 2 2 2 2 2 2 2 2 2 2 2 2 1 2 2 1 1 1 1 1 1 1 1
5 4 4 4 4 4 3 3 3 3 3 3 3 2 2 2 2 3 3 2 2 1 1 1 1 2 2 1 1 1 2 2 1 1 0 0 1 1 1 0 0 1 1
5 4 4 4 3 3 4 4 4 3 3 4 4 3 3 3 3 5 4 3 3 2 2 1 1 2 2 3 4 4 3 2 2 1 1 0 1 1 0 0 0 1 1
4 4 4 4 4 3 4 5 4 4 4 5 4 5 5 5 6 5 5 4 4 4 3 3 3 3 4 3 5 6 5 4 2 2 2 2 2 1 1 1 0 1 1
4 3 3 4 4 4 5 5 5 5 5 5 5 5 6 6 6 7 7 6 6 6 5 4 5 4 4 4 5 5 5 4 3 2 2 0 0 0 1 2 2 0 1
4 4 3 4 5 5 6 5 5 5 6 6 5 6 6 6 6 7 7 6 6 6 6 6 5 5 5 6 6 6 5 4 6 7 6 5 6 5 3 2 2 2 1
4 4 4 4 6 6 6 6 5 6 7 7 7 6 6 6 7 7 7 5 6 5 5 6 8 7 7 7 5 5 5 3 3 5 6 7 7 8 7 3 1 1 1
4 5 6 6 6 7 6 6 7 7 8 8 8 7 7 7 7 9 8 5 5 5 5 5 6 9 10 9 8 6 5 4 4 5 5 5 5 5 5 5 4 2 2
7 8 7 6 6 7 9 8 8 8 9 8 8 7 6 6 7 8 10 9 7 6 5 4 6 10 12 11 9 9 9 7 5 5 5 5 5 4 4 5 6 5 3
9 9 8 8 7 7 8 9 8 7 7 7 6 6 6 5 7 10 10 10 10 7 6 8 10 11 11 10 11 12 9 6 6 6 5 4 3 3 4 4 5 6 6
10 8 8 9 9 8 7 6 6 6 7 6 6 6 5 5 5 4 5 6 9 8 7 9 11 13 10 9 8 8 6 6 5 5 3 3 4 4 4 3 3 4 4
9 8 8 8 8 9 8 7 6 4 5 7 5 5 6 5 3 5 6 5 5 5 6 6 7 6 7 6 6 6 6 6 6 4 4 4 4 4 4 4 3 3 3
8 7 6 6 7 8 9 9 13 10 13 13 10 8 6 7 8 11 12 12 11 10 9 7 6 5 5 4 4 5 5 5 4 4 4 4 4 4 4 4 4 3 3
8 7 6 6 7 7 7 9 8 9 13 13 12 12 11 10 12 12 13 14 13 11 8 6 5 4 4 4 4 4 4 4 4 4 4 4 4 4 4 4 4 4 4
7 8 7 6 6 6 6 6 7 8 6 5 7 10 11 11 12 12 12 12 9 7 5 4 4 4 4 4 4 4 4 5 5 5 5 5 4 4 4 4 4 4 3
7 6 6 6 6 6 6 6 6 7 6 5 4 5 8 10 11 12 10 7 6 5 4 4 4 4 4 4 4 4 4 4 4 4 5 5 4 4 4 4 4 6 4
6 9 8 7 7 6 6 6 6 6 6 5 4 3 4 6 6 6 6 5 5 5 5 5 5 5 5 4 4 4 4 4 5 5 4 4 4 4 4 4 4 3 3
6 7 9 7 6 6 6 6 6 6 5 5 4 4 7 6 5 5 4 4 4 4 4 5 4 4 4 4 4 4 5 4 4 4 4 4 4 4 4 3 3 3 3
6 6 6 6 6 6 6 6 6 6 6 6 4 5 9 6 4 4 4 4 4 4 4 4 4 3 3 3 3 3 3 3 3 4 4 4 4 4 4 3 4 3 3
7 7 7 7 7 8 8 6 6 6 6 5 5 5 5 4 4 4 4 4 4 5 6 7 5 4 5 5 4 3 2 1 2 3 3 4 4 4 4 4 4 4 4
7 8 8 7 7 7 6 6 6 6 6 6 5 5 4 4 4 4 3 3 4 5 6 7 6 5 5 5 5 4 4 3 4 4 4 3 4 4 4 4 4 4 4
7 7 7 7 7 7 6 6 6 6 6 5 5 4 4 4 4 3 3 3 5 5 6 6 6 5 5 4 4 5 6 6 6 5 4 3 3 4 4 4 4 4 3
7 7 7 6 6 6 6 6 5 5 5 5 4 4 4 4 3 3 3 3 4 4 5 5 5 4 4 3 4 6 7 8 8 6 4 3 3 3 4 3 4 4 4
Wind_Direction
182 182 181 184 187 186 191 194 192 190 187 186 195 197 199 198 193 191 195 191 206 225 224 220 228 220 218 221 214 208 206 188 217 251 239 258 251 245 226 220 228 228 231
181 174 177 177 172 179 190 191 185 186 186 188 188 187 197 200 196 194 201 195 199 217 227 229 239 228 221 222 208 214 219 203 199 234 258 268 254 244 229 228 248 237 238
170 166 169 170 168 175 182 178 166 162 157 158 164 177 188 192 192 194 190 187 197 212 215 218 237 222 224 222 200 212 221 206 185 203 246 258 268 324 81 354 23 352 289
151 158 165 169 164 167 169 159 147 142 142 139 141 160 165 161 164 169 165 176 187 200 204 214 237 215 208 209 198 209 192 166 168 184 230 263 280 291 90 45 1 351 336
123 138 157 156 152 151 144 138 124 121 127 128 125 128 133 137 148 144 145 150 157 155 96 75 77 87 102 138 151 150 137 143 147 152 217 358 343 13 19 333 267 307 335
122 125 128 133 136 144 142 136 127 120 114 109 111 110 100 104 100 108 118 117 116 121 110 79 69 66 81 85 90 92 114 151 168 165 205 181 277 270 296 41 292 50 331
119 132 137 139 140 142 138 124 121 120 108 102 98 97 95 84 89 96 104 106 95 86 86 81 74 62 68 85 81 72 64 69 119 163 166 229 240 250 181 110 92 139 222
101 111 127 135 137 129 123 120 119 113 112 105 97 95 91 79 82 86 89 88 79 69 65 69 75 60 60 76 86 74 63 52 61 90 124 176 140 194 160 182 198 167 12
92 97 111 124 127 121 120 124 122 114 106 101 97 96 92 76 77 88 93 87 80 64 58 57 66 66 58 76 85 84 71 49 51 64 68 58 49 48 67 80 60 63 5
102 101 100 113 122 124 125 120 111 106 103 100 89 82 86 80 73 80 91 95 87 72 55 48 54 64 63 71 80 82 74 42 40 46 42 38 35 35 41 63 107 114 62
102 95 90 97 107 109 109 108 108 107 103 97 89 75 68 69 71 71 77 91 99 88 69 54 49 60 64 62 68 70 72 71 62 60 50 38 30 25 24 26 37 88 100
95 92 87 85 96 102 101 99 101 104 101 94 88 75 58 55 61 69 73 76 86 91 83 67 61 66 66 63 63 60 61 63 64 62 53 39 29 19 12 23 34 41 54
98 94 89 82 81 88 98 104 102 99 101 98 93 85 68 57 55 62 69 71 74 80 77 74 71 68 65 62 58 59 58 61 64 63 53 33 12 8 16 19 20 23 24
100 96 92 89 81 74 75 85 100 104 108 106 101 94 79 63 54 56 61 70 70 74 73 66 65 65 63 55 49 50 53 60 70 66 50 26 17 22 20 17 17 8 14
99 96 92 92 95 86 75 63 76 73 115 121 116 113 107 90 57 78 93 85 89 89 84 69 62 60 56 49 46 43 44 46 50 42 44 35 26 23 12 6 19 25 24
109 105 105 105 102 102 99 80 57 70 79 86 95 102 84 88 89 83 81 83 87 89 84 77 71 67 66 60 56 45 42 42 41 43 41 36 30 25 16 12 20 26 12
124 124 120 117 114 111 110 109 97 66 64 71 81 87 88 85 81 82 84 83 77 81 79 77 75 73 67 62 58 56 46 37 42 46 41 31 26 24 23 16 14 14 6
122 123 124 124 122 118 114 112 114 113 99 66 55 71 79 78 79 82 84 81 67 61 71 76 74 72 67 59 54 51 46 39 38 37 33 28 25 24 20 12 7 4 354
122 124 123 120 117 117 117 114 109 107 106 99 79 59 68 78 76 73 76 81 86 75 67 68 69 66 60 57 56 54 51 44 38 35 29 24 19 21 13 2 358 360 4
114 123 124 122 120 119 118 116 112 109 106 102 98 96 86 83 79 71 70 80 86 85 79 77 71 69 64 58 52 48 44 37 31 29 20 13 8 12 6 357 356 355 346
102 109 112 111 115 121 123 121 119 116 113 107 102 106 114 102 101 97 90 85 90 92 93 86 76 69 66 57 51 45 45 36 26 16 7 359 358 356 347 344 344 345 338
102 102 103 106 108 110 116 118 118 121 120 113 99 92 97 93 93 98 96 92 90 96 104 101 87 80 80 68 57 51 41 29 9 357 350 345 344 342 341 341 341 338 337
103 101 99 99 102 107 105 104 107 111 112 111 107 99 97 97 97 101 99 94 94 95 99 105 104 89 74 69 64 68 54 2 322 320 327 329 331 331 331 328 326 326 328
101 102 103 102 101 104 108 109 111 112 110 108 106 106 108 110 111 111 105 105 107 106 109 110 109 103 88 69 57 49 33 358 336 321 313 307 314 318 326 330 327 324 327
100 101 103 106 107 108 105 104 105 108 111 112 111 109 110 112 113 110 107 116 119 120 120 120 115 103 90 68 44 24 11 4 358 350 341 327 319 321 325 325 327 331 335
101 105 106 107 108 109 110 110 110 112 115 117 116 117 122 121 119 112 113 117 119 122 123 126 120 105 86 59 32 18 11 8 5 6 9 359 342 338 340 333 333 336 333
Height
1510 1512 1513 1514 1516 1517 1518 1519 1521 1522 1523 1525 1526 1527 1529 1531 1532 1534 1535 1536 1537 1538 1539 1540 1540 1541 1542 1543 1544 1544 1544 1545 1545 1545 1546 1546 1547 1547 1547 1547 1547 1546 1546
1509 1510 1511 1512 1514 1515 1516 1517 1518 1519 1520 1521 1523 1524 1526 1527 1529 1530 1531 1532 1533 1534 1535 1535 1536 1537 1538 1538 1539 1540 1540 1541 1541 1541 1542 1542 1542 1542 1542 1542 1542 1542 1542
1508 1509 1510 1510 1511 1513 1514 1515 1516 1517 1518 1519 1520 1521 1522 1524 1525 1526 1527 1528 1529 1530 1531 1531 1532 1533 1534 1534 1535 1535 1536 1536 1537 1537 1537 1538 1537 1538 1538 1538 1538 1538 1538
1506 1506 1508 1508 1509 1511 1512 1513 1514 1515 1516 1517 1518 1519 1520 1522 1523 1523 1524 1525 1526 1526 1527 1528 1528 1529 1529 1530 1530 1531 1532 1532 1532 1533 1533 1533 1533 1534 1534 1534 1533 1534 1534
1505 1505 1506 1506 1508 1510 1511 1512 1513 1513 1514 1516 1517 1518 1519 1519 1520 1521 1521 1522 1523 1523 1523 1524 1524 1525 1525 1526 1526 1527 1528 1528 1528 1529 1529 1529 1529 1529 1529 1529 1529 1529 1530
1505 1505 1505 1506 1507 1508 1509 1510 1511 1512 1513 1514 1515 1516 1517 1518 1518 1519 1520 1520 1520 1520 1520 1521 1521 1521 1522 1522 1523 1523 1524 1524 1524 1525 1525 1525 1525 1526 1526 1526 1525 1525 1525
1505 1505 1506 1506 1506 1507 1508 1509 1510 1511 1512 1513 1514 1515 1516 1517 1518 1518 1519 1519 1519 1518 1518 1518 1518 1518 1518 1519 1520 1520 1521 1521 1522 1523 1522 1522 1522 1522 1523 1522 1522 1522 1522
1505 1505 1505 1505 1506 1506 1507 1508 1509 1510 1512 1513 1514 1515 1516 1516 1517 1518 1518 1518 1518 1518 1518 1517 1517 1518 1518 1518 1518 1518 1519 1519 1520 1520 1520 1520 1520 1520 1520 1520 1520 1520 1520
1504 1504 1504 1504 1505 1506 1506 1507 1508 1510 1511 1512 1514 1515 1516 1516 1517 1518 1518 1518 1517 1518 1518 1518 1518 1518 1518 1518 1518 1517 1518 1518 1519 1519 1519 1519 1519 1518 1518 1518 1517 1517 1516
1504 1504 1504 1505 1505 1506 1507 1508 1509 1510 1511 1513 1514 1515 1516 1517 1518 1518 1518 1518 1518 1518 1518 1519 1519 1518 1518 1518 1518 1518 1518 1518 1519 1519 1519 1519 1518 1517 1517 1516 1516 1515 1514
1504 1504 1504 1505 1506 1507 1508 1509 1510 1511 1512 1513 1514 1515 1517 1518 1518 1519 1519 1519 1519 1519 1519 1519 1519 1520 1519 1519 1519 1519 1519 1519 1519 1519 1519 1518 1518 1517 1516 1515 1515 1514 1513
1504 1504 1505 1506 1506 1507 1508 1509 1511 1512 1513 1514 1515 1516 1518 1519 1519 1520 1520 1520 1520 1520 1520 1520 1521 1521 1521 1521 1521 1521 1521 1520 1520 1520 1519 1519 1518 1517 1516 1516 1515 1514 1513
1504 1504 1505 1506 1507 1508 1509 1510 1512 1513 1514 1515 1516 1517 1518 1519 1520 1521 1521 1521 1521 1521 1522 1522 1522 1522 1522 1521 1522 1522 1522 1521 1521 1520 1520 1519 1519 1518 1517 1516 1515 1515 1514
1504 1505 1506 1507 1508 1510 1511 1512 1514 1515 1516 1517 1518 1518 1519 1520 1521 1521 1522 1522 1522 1523 1523 1524 1524 1524 1524 1524 1524 1523 1523 1522 1522 1521 1521 1521 1520 1519 1518 1517 1515 1514 1513
1505 1506 1508 1509 1510 1511 1512 1514 1515 1516 1518 1519 1520 1520 1521 1521 1523 1523 1524 1524 1524 1525 1525 1525 1525 1525 1525 1525 1525 1525 1524 1523 1523 1523 1522 1521 1520 1519 1518 1517 1515 1514 1513
1506 1508 1509 1510 1511 1512 1514 1515 1517 1518 1520 1521 1522 1523 1524 1524 1525 1526 1526 1526 1526 1527 1527 1527 1527 1527 1527 1527 1527 1526 1526 1525 1524 1524 1523 1522 1520 1519 1518 1517 1516 1514 1512
1508 1509 1510 1512 1513 1514 1516 1517 1518 1521 1522 1523 1524 1525 1526 1527 1527 1528 1528 1529 1529 1530 1529 1529 1529 1530 1529 1529 1529 1528 1527 1526 1526 1524 1523 1522 1521 1520 1518 1517 1515 1514 1512
1509 1510 1512 1514 1515 1516 1518 1519 1521 1522 1523 1525 1526 1528 1529 1529 1530 1530 1531 1531 1531 1531 1531 1531 1531 1531 1531 1530 1530 1529 1528 1527 1526 1525 1523 1522 1521 1520 1519 1517 1516 1514 1512
1510 1512 1514 1515 1517 1518 1520 1521 1523 1524 1525 1527 1528 1530 1531 1532 1532 1533 1533 1533 1533 1533 1533 1533 1533 1533 1532 1531 1530 1530 1529 1527 1526 1525 1524 1523 1522 1520 1519 1517 1516 1514 1512
1513 1514 1516 1517 1519 1520 1522 1523 1525 1526 1527 1529 1530 1531 1533 1533 1534 1534 1535 1535 1535 1535 1535 1534 1534 1533 1533 1532 1531 1530 1529 1528 1526 1525 1524 1523 1522 1520 1519 1517 1515 1513 1511
1515 1516 1518 1519 1521 1522 1523 1525 1526 1528 1529 1530 1532 1534 1534 1535 1535 1536 1536 1536 1536 1536 1536 1535 1535 1534 1533 1532 1531 1530 1529 1527 1526 1525 1524 1523 1521 1520 1518 1516 1514 1512 1510
1517 1518 1519 1521 1522 1524 1525 1527 1528 1530 1531 1532 1534 1535 1535 1536 1537 1537 1537 1537 1537 1537 1537 1536 1535 1535 1534 1532 1531 1530 1528 1527 1526 1524 1523 1522 1520 1519 1517 1515 1513 1512 1510
1519 1520 1522 1523 1525 1526 1528 1529 1530 1531 1532 1534 1535 1535 1536 1537 1537 1538 1538 1538 1538 1538 1537 1537 1536 1535 1534 1532 1531 1529 1528 1526 1525 1523 1522 1520 1519 1517 1516 1514 1512 1511 1509
1522 1523 1524 1525 1527 1528 1529 1530 1532 1533 1534 1535 1536 1537 1537 1538 1538 1539 1539 1539 1538 1538 1538 1537 1536 1534 1533 1531 1530 1528 1527 1525 1524 1522 1521 1519 1518 1516 1515 1513 1511 1510 1508
1524 1525 1526 1527 1528 1530 1531 1532 1533 1534 1535 1536 1537 1538 1538 1539 1539 1539 1539 1539 1538 1538 1538 1537 1536 1534 1533 1531 1529 1528 1526 1524 1523 1521 1520 1518 1517 1515 1514 1512 1510 1509 1507
1527 1528 1529 1530 1531 1532 1533 1534 1535 1535 1536 1537 1538 1538 1539 1539 1539 1539 1539 1539 1538 1538 1537 1536 1535 1534 1532 1531 1529 1527 1525 1524 1522 1520 1519 1517 1516 1514 1513 1511 1510 1508 1506